User: anonymous   Login
Location: Unspecified
(0.0000°N, 0.0000°E)
Time: 16:22:10
(UTC+00:00)
Language:

Miranda - Orbit

View from above orbital plane
View from above orbital plane
View from above satellite
View from above satellite

Ground track
Ground track

The orbit data is extracted from the following two-line orbital elements,

1  7213U 74013A   18111.67867684 +.00000043 +00000-0 +23036-4 0  9997
2  7213 097.8201 155.8611 0119550 115.5404 245.8205 14.42847952289843
Epoch (UTC): 21 April 2018 16:17:17
Eccentricity: 0.0119550
inclination: 97.8201°
perigee height: 664 km
apogee height: 834 km
right ascension of ascending node: 155.8611°
argument of perigee: 115.5404°
revolutions per day: 14.42847952
mean anomaly at epoch: 245.8205°
orbit number at epoch: 28984

The dashed part of the orbit path shows where the satellite is in the earth's shadow,  

DLR